Theta_e
292 288 285 288 292 291 292 290 290 295 300 297 296 297 299 304 304 302 301 300 304 307 307 308 320 325 329 333 332 333 334 335 335 333 335 331 334 334 334 333 336 335 335 334
289 285 290 291 293 292 292 290 291 297 299 297 296 295 301 303 304 305 301 301 302 304 307 306 307 315 324 329 332 332 334 334 334 335 335 333 332 331 333 335 336 338 338 337
287 290 295 293 292 292 292 291 291 292 297 298 294 292 295 300 303 304 302 302 303 304 305 306 304 305 309 325 329 332 334 333 334 335 334 330 331 330 330 329 327 329 330 328
290 295 293 292 291 292 288 295 294 294 292 287 296 283 290 295 296 299 302 299 301 303 303 305 305 304 304 313 326 329 331 331 333 332 332 328 327 326 328 329 324 324 323 320
287 293 292 291 292 295 291 297 295 295 291 289 290 285 289 291 293 295 297 301 300 301 303 304 304 305 306 306 317 322 326 327 327 330 331 329 325 326 320 321 319 318 315 314
291 296 294 292 296 296 298 295 294 293 289 282 287 286 285 286 292 296 295 298 300 301 301 302 305 304 303 306 310 313 317 319 318 319 325 325 321 314 314 312 313 311 310 310
288 289 294 296 293 296 295 289 281 280 279 278 287 286 288 291 292 295 295 296 298 299 299 300 302 301 303 306 307 309 310 311 315 313 316 317 316 314 314 313 313 311 311 307
279 280 290 295 292 290 291 288 280 276 275 277 285 281 285 291 294 295 295 295 296 297 298 300 301 301 304 306 306 307 308 309 310 312 314 315 312 312 312 311 312 310 308 305
278 281 294 295 295 294 290 283 287 280 278 276 280 285 289 291 291 292 293 294 294 296 296 299 300 301 304 305 306 306 306 307 308 309 310 310 308 308 306 305 304 303 302 302
285 278 289 293 294 294 290 291 281 279 273 273 277 279 281 285 288 289 289 289 290 291 295 298 299 300 303 304 305 305 306 306 307 307 307 306 305 304 303 302 301 300 300 300
289 284 284 290 286 286 288 285 286 283 280 275 274 278 285 287 289 290 291 292 293 294 294 295 298 300 303 303 304 304 305 305 305 306 305 304 303 303 302 301 300 299 299 298
289 285 280 283 291 293 291 288 286 277 277 276 276 278 289 289 291 292 292 294 295 296 295 296 296 300 301 302 302 303 303 304 305 304 302 301 302 300 300 299 299 298 297 297
289 281 280 280 285 289 287 289 290 286 282 276 274 278 290 289 290 293 292 293 296 296 296 296 297 299 299 300 301 301 302 302 303 302 300 299 297 298 298 298 297 297 297 296
294 285 279 274 279 284 282 287 289 285 276 281 280 284 287 289 289 290 290 292 293 295 297 296 297 298 299 300 300 300 300 300 299 300 300 298 298 297 298 296 297 296 295 295
290 280 278 284 286 285 285 286 286 281 285 280 284 285 289 290 290 292 294 294 294 294 296 297 297 297 298 298 299 299 299 298 298 297 297 297 297 297 297 296 294 294 294 294
289 280 280 279 285 285 283 285 285 286 286 286 287 286 294 293 292 293 293 294 294 293 295 298 298 298 298 297 298 299 298 297 297 296 296 296 296 295 294 294 293 292 291 291
287 283 279 275 282 282 278 283 284 285 286 287 283 289 292 291 293 293 292 293 294 294 295 295 296 299 299 298 299 298 297 297 296 296 295 296 295 294 293 292 291 290 289 289
286 284 281 274 278 269 282 287 287 286 288 288 288 290 292 291 292 292 292 292 293 294 295 295 295 296 299 300 299 299 297 297 296 295 295 295 295 293 292 291 290 289 288 288
287 284 280 276 274 279 282 285 285 282 283 288 287 290 292 293 291 290 294 294 293 293 295 295 295 295 296 299 301 299 297 297 296 295 295 295 294 292 291 290 289 288 288 287
287 285 281 277 275 274 281 287 289 286 278 288 290 290 291 291 285 288 293 294 294 294 294 294 294 296 296 297 299 298 297 296 295 295 295 295 294 293 291 289 288 289 290 285
281 280 277 278 277 280 286 289 289 277 279 289 291 292 292 289 290 293 293 293 294 294 294 295 294 293 294 296 298 298 296 295 297 296 295 294 294 292 291 289 288 288 288 287
280 277 277 278 275 273 288 287 282 285 290 291 291 292 293 293 294 295 295 294 294 293 294 294 293 293 294 295 298 296 295 296 297 295 295 293 292 293 291 289 287 288 288 287
279 282 280 282 281 288 288 287 290 291 289 290 290 292 293 293 293 295 295 295 294 293 293 294 293 293 293 294 296 295 295 296 296 295 293 292 292 291 290 288 286 288 288 287
283 286 282 284 284 287 290 291 292 292 292 293 293 293 293 292 294 294 295 295 293 293 292 293 292 291 292 293 295 296 296 296 295 294 292 292 291 290 289 289 289 288 287 286
284 285 284 283 286 288 289 290 290 291 293 293 295 295 295 295 294 295 296 295 294 293 293 293 292 293 292 292 293 294 294 294 293 292 291 290 290 290 289 289 289 288 289 288
285 285 282 280 288 287 287 290 292 289 289 292 293 294 295 296 295 296 296 296 295 294 294 293 293 293 293 293 294 294 294 293 292 291 291 291 290 290 289 288 288 292 291 292
Wind_Speed
2 3 5 7 8 1 10 13 11 11 11 5 8 4 8 5 6 8 8 5 6 7 4 3 8 7 5 6 7 8 8 8 7 3 4 3 4 3 2 4 6 6 5 5
3 2 8 5 9 4 8 14 7 11 15 6 8 6 6 3 8 11 11 8 8 5 5 5 5 6 9 8 8 7 9 7 7 6 5 4 3 2 2 2 3 4 5 5
1 3 10 5 4 4 5 13 11 10 7 6 8 4 9 8 16 18 9 8 7 10 8 7 6 8 6 8 10 10 10 9 8 9 5 3 3 3 3 2 3 2 7 6
4 4 9 9 2 4 7 7 13 15 7 2 1 2 8 13 12 13 15 8 9 9 6 7 8 6 8 9 6 7 8 9 8 7 7 5 4 4 2 4 4 2 3 3
1 9 9 4 4 4 4 10 11 17 10 5 2 2 7 4 15 14 12 13 10 10 9 10 10 10 9 6 7 7 7 7 6 7 8 7 5 4 3 4 9 4 4 2
7 2 5 4 4 4 7 11 11 9 4 1 7 6 5 5 12 15 7 10 10 10 9 9 9 8 6 2 4 5 7 5 4 4 5 7 8 7 6 5 6 5 3 3
6 7 6 5 7 11 13 7 4 3 2 3 7 9 9 8 6 9 11 11 11 9 8 8 8 8 8 8 6 3 4 6 6 5 4 4 6 6 6 5 4 6 4 2
3 4 6 7 5 4 5 4 4 4 5 4 5 5 7 4 4 3 3 3 5 7 8 9 9 8 9 10 9 8 7 5 6 6 5 3 6 1 3 4 4 3 3 4
5 5 5 3 3 2 3 4 3 7 4 5 3 6 5 3 4 4 5 5 2 3 4 6 7 8 8 8 9 9 8 6 6 6 6 5 6 8 5 6 5 4 5 3
3 5 2 3 0 1 3 2 4 5 3 2 4 5 3 2 5 1 2 2 3 3 4 6 2 5 4 4 5 6 6 7 6 7 5 7 10 7 7 6 5 5 5 4
4 5 4 4 4 2 5 3 5 4 4 4 3 6 6 8 7 8 5 3 1 3 1 3 3 2 5 4 5 6 6 8 7 6 6 10 6 9 10 7 6 5 6 6
3 4 3 1 3 1 1 2 3 5 3 2 2 6 5 4 6 6 5 3 1 2 4 2 0 3 5 6 5 6 5 7 6 6 6 2 11 8 6 8 9 6 4 4
1 2 3 8 6 4 2 1 3 4 3 3 4 6 4 3 2 5 3 3 4 4 2 0 1 3 5 5 5 6 6 6 6 6 6 6 3 1 6 10 8 5 5 6
3 3 6 7 6 3 2 2 3 5 3 3 5 4 3 4 5 5 2 5 5 6 5 4 4 5 5 6 6 7 7 6 7 7 7 6 6 4 3 2 7 7 5 5
4 3 2 3 4 4 3 3 3 5 5 5 2 7 8 6 6 5 6 5 7 9 7 8 8 8 7 7 6 6 6 7 7 7 7 7 7 6 5 5 5 6 5 5
2 1 2 4 3 4 3 5 6 6 3 7 9 14 9 8 5 6 7 5 5 7 7 7 7 7 7 8 8 7 7 8 7 7 7 6 7 6 6 6 6 6 5 4
2 4 3 4 4 5 6 5 4 3 3 4 7 10 6 6 7 7 5 4 6 6 7 7 7 8 8 9 9 9 8 7 8 8 7 7 7 7 6 6 6 5 5 4
4 3 2 1 4 3 7 4 3 6 6 5 8 10 7 6 3 1 1 2 4 5 6 7 7 7 8 7 8 7 8 10 9 8 8 8 8 8 6 6 6 5 4 4
2 4 2 3 2 6 1 2 1 1 6 1 3 4 2 3 3 4 4 3 5 5 7 7 6 7 6 8 11 10 9 10 9 8 8 8 9 8 8 7 7 5 4 3
5 5 4 2 3 4 5 3 2 2 5 4 2 3 3 3 4 5 4 4 6 6 6 7 7 7 7 7 8 11 11 10 12 10 9 8 8 8 8 7 7 4 3 4
2 2 4 2 2 7 5 4 2 1 6 3 2 4 4 4 7 6 5 6 4 5 7 6 6 6 7 6 8 11 11 13 10 8 8 7 8 8 8 7 4 5 4 4
6 5 4 2 2 6 1 1 3 3 5 5 6 7 8 8 8 7 8 8 7 6 5 4 3 5 6 3 7 8 12 7 9 8 8 8 7 6 7 8 5 5 5 5
1 5 4 7 5 1 4 1 1 3 3 5 6 10 9 9 7 8 7 8 7 7 5 3 3 3 5 4 5 6 5 8 8 8 7 6 6 6 6 7 6 4 4 4
2 2 1 3 1 2 6 4 4 4 7 8 6 8 8 11 12 9 8 7 6 5 5 3 3 2 1 3 5 5 5 6 8 8 7 7 7 6 5 4 4 4 5 5
4 2 1 4 5 7 2 6 6 7 9 11 11 11 11 10 14 17 12 8 7 6 4 4 5 4 4 4 5 4 5 6 6 5 5 5 5 6 5 4 5 5 5 7
2 3 3 5 2 3 7 5 7 12 14 14 16 16 14 13 11 15 16 6 6 6 4 4 5 5 5 4 5 6 5 6 6 5 5 5 5 5 4 4 3 10 11 12
Wind_Direction
275 161 190 151 234 329 154 151 140 143 162 111 126 197 278 304 331 304 259 213 220 214 257 241 195 198 200 219 208 177 175 169 167 155 159 210 195 189 219 190 200 197 191 179
225 184 145 189 261 290 163 145 126 129 141 92 134 244 201 295 278 258 236 206 223 245 223 222 213 189 182 197 199 194 198 184 180 181 188 175 166 194 181 155 103 123 128 151
211 121 144 163 217 205 102 138 122 108 144 25 130 270 237 179 230 244 240 241 220 207 212 226 223 218 203 198 186 198 201 195 185 185 170 123 105 98 132 116 104 126 121 118
15 325 141 183 200 99 86 123 136 130 126 90 200 280 228 230 231 229 235 220 236 235 220 222 218 239 218 226 198 187 179 197 194 179 167 159 173 148 175 155 126 74 352 125
81 106 148 56 36 25 107 128 134 136 117 145 151 72 255 199 226 237 234 240 237 229 204 218 217 216 225 209 213 196 205 189 194 188 207 185 186 148 140 133 127 156 138 87
48 358 46 3 23 53 128 92 79 68 60 150 188 200 263 184 213 222 233 232 238 238 231 221 225 210 223 188 186 183 157 176 168 154 225 185 172 143 134 133 138 143 128 109
20 21 324 10 46 28 113 82 103 152 142 203 153 183 261 268 248 206 207 215 225 231 244 237 217 197 184 174 182 191 168 175 177 147 216 215 166 147 159 177 181 160 162 123
77 54 7 341 48 125 66 119 162 143 173 162 126 223 261 266 265 74 154 216 202 220 235 244 218 205 196 181 180 167 172 165 159 169 180 199 119 276 131 154 201 173 126 119
104 46 329 73 72 165 234 174 218 102 28 71 211 274 285 51 76 103 115 115 89 306 313 303 225 197 191 175 186 184 172 163 151 145 134 153 99 139 96 91 93 84 80 79
167 87 323 305 12 231 167 233 40 11 117 200 311 300 250 254 207 121 89 41 20 26 355 352 259 203 201 196 145 142 151 153 143 132 136 126 133 72 101 92 82 113 109 94
66 66 313 14 20 20 5 18 45 106 108 151 161 260 214 215 184 167 185 197 138 83 341 329 339 199 163 154 167 170 162 150 149 145 139 142 125 151 131 136 142 161 141 130
19 103 79 112 289 248 129 69 83 109 296 34 142 276 344 152 178 144 169 166 135 159 185 261 187 201 189 181 167 174 158 149 146 147 132 282 128 147 146 138 148 151 119 115
353 35 62 347 353 6 10 283 108 101 68 233 119 271 353 6 241 207 193 282 298 297 298 166 212 217 202 178 167 164 157 145 131 122 119 91 19 83 165 143 138 145 147 138
114 105 146 172 209 180 290 260 170 122 117 191 215 280 340 283 277 330 318 291 285 260 258 261 244 225 213 192 179 173 174 162 147 142 144 139 133 158 152 154 134 147 144 143
87 96 95 209 191 138 206 254 213 189 199 165 266 211 240 246 249 261 303 274 269 259 236 230 229 222 211 206 202 189 177 163 158 158 161 169 160 162 163 151 132 124 140 158
34 159 102 10 352 196 258 244 233 246 225 252 263 270 241 256 243 251 250 265 278 261 266 258 266 265 242 217 203 191 181 173 163 163 171 157 152 155 158 154 141 135 144 149
96 122 78 283 359 0 333 272 220 259 236 207 260 260 276 260 269 272 270 266 276 293 297 292 262 246 232 217 198 202 182 159 168 169 162 164 158 158 173 157 135 140 159 170
127 92 74 229 35 22 240 275 186 198 255 264 281 283 279 251 232 203 252 247 282 273 280 286 294 278 247 213 192 176 165 171 176 176 170 164 162 161 154 147 154 160 161 181
75 123 109 115 171 279 336 303 64 95 281 304 286 343 1 340 323 282 225 237 263 267 271 265 264 275 280 218 193 175 171 173 172 182 178 172 163 157 156 165 168 172 158 184
68 72 117 133 133 234 228 268 188 99 287 246 225 270 294 14 359 263 229 252 275 279 274 285 287 288 282 242 185 175 180 176 190 180 174 166 159 161 167 166 169 174 150 184
75 40 170 173 233 284 243 249 93 153 249 289 278 276 271 235 211 248 292 280 248 259 289 304 303 285 279 276 186 190 171 190 186 153 150 156 163 160 165 160 157 171 150 160
170 152 199 111 168 287 310 346 180 267 313 312 309 281 271 258 262 255 272 269 270 274 287 298 316 329 323 282 182 182 186 156 145 142 151 161 161 158 155 158 164 172 161 176
183 184 187 175 211 296 325 355 344 10 300 311 321 311 306 286 277 280 263 243 243 246 257 274 266 321 356 24 132 138 139 135 134 140 149 152 148 156 155 159 166 158 175 184
318 10 123 16 117 331 258 335 321 294 287 286 288 294 301 302 300 274 269 250 227 220 222 213 218 209 46 37 63 108 126 132 142 150 149 150 155 155 154 159 166 175 183 197
211 22 79 283 321 335 154 334 327 328 338 326 319 309 303 310 312 308 278 240 217 213 213 197 195 196 173 131 106 119 126 127 131 136 144 150 159 170 171 178 183 198 206 203
203 178 137 230 232 224 265 297 315 347 327 315 313 310 304 296 288 295 283 238 192 196 196 213 209 198 183 172 150 147 151 152 151 159 165 175 169 170 177 177 203 222 223 227